weather.gov     
National Weather Service

Regional Weather Roundup
NWS Homepage
This page is being discontinued on March 12, 2014.
The same data is available at this site. Please update your bookmarks.
Thank you, and we apologize for the inconvenience.
Please send an email to SR-SRH.Webmaster@noaa.gov with any concerns.


Current Version
Previous Version:    01  02  03  04  05  06  07  08  09  10  11  12  13  14  15  16  17  18  19  20  21  22  23  24  25  26  27  28  29  30  
   31  32  33  34  35  36  37  38  39  40  41  42  43  44  45  46  47  48  49  50  51  52  53  54  55  56  57  58  59  60  
[Printable]
239
ASUS44 KFWD 231215
RWRTX
NORTH TEXAS HOURLY WEATHER ROUNDUP
NATIONAL WEATHER SERVICE FORT WORTH TX
600 AM CST SUN NOV 23 2014

NOTE: "FAIR" INDICATES FEW OR NO CLOUDS BELOW 12,000 FEET WITH NO
SIGNIFICANT WEATHER AND/OR OBSTRUCTIONS TO VISIBILITY.

TXZ118-119-231300-
DALLAS/FORT WORTH METROPLEX

CITY           SKY/WX    TMP DP  RH WIND       PRES   REMARKS
DFW AIRPORT    PTCLDY    52  52 100 S7        29.59S FOG
6HR MIN TEMP:  50; 6HR MAX TEMP:  53;

DALLAS LOVE    CLOUDY    56  56 100 S5        29.59F FOG
6HR MIN TEMP:  55; 6HR MAX TEMP:  58;

FTW MEACHAM    CLEAR     53  52  96 S3        29.58F
6HR MIN TEMP:  53; 6HR MAX TEMP:  57;

DAL-EXECUTIVE  CLOUDY    58  56  93 S6        29.58F FOG
6HR MIN TEMP:  54; 6HR MAX TEMP:  59;

FTW-ALLIANCE   CLEAR     52  51  97 CALM      29.57F
6HR MIN TEMP:  51; 6HR MAX TEMP:  56;

FTW-SPINKS     CLEAR     52  51  96 S5        29.60F FOG
6HR MIN TEMP:  51; 6HR MAX TEMP:  56;

ARLINGTON      CLEAR     53  50  89 SW3       29.59F
6HR MIN TEMP:  51; 6HR MAX TEMP:  56;

ADDISON        FOG       57  55  94 SE7       29.58F VSB 1/4
LANCASTER      FOG       55  54  94 CALM      29.61F VSB 1/4
6HR MIN TEMP:  54; 6HR MAX TEMP:  57; 6HR PCP:  0.01;

$$

TXZ091>094-102>105-117-120-121-131>134-231300-
NORTH CENTRAL TEXAS

CITY           SKY/WX    TMP DP  RH WIND       PRES   REMARKS
SHRMAN/DENISON CLOUDY    58  58 100 S10       29.59F
6HR MIN TEMP:  57; 6HR MAX TEMP:  59;

GAINESVILLE    FOG       50  49  99 SE7       29.59F VSB 1/2
6HR MIN TEMP:  49; 6HR MAX TEMP:  56;

BOWIE          CLEAR     50  50 100 SE5       29.55F
6HR MIN TEMP:  50; 6HR MAX TEMP:  52;

BRIDGEPORT     CLEAR     49  49 100 CALM      29.58S
6HR MIN TEMP:  49; 6HR MAX TEMP:  54;

DECATUR        CLEAR     54  52  92 S13       29.56F
6HR MIN TEMP:  53; 6HR MAX TEMP:  55;

DENTON         PTCLDY    52  51  97 SE5       29.58F
6HR MIN TEMP:  51; 6HR MAX TEMP:  56;

MCKINNEY       CLOUDY    57  57 100 S7        29.58F FOG
6HR MIN TEMP:  56; 6HR MAX TEMP:  58;

GREENVILLE     CLOUDY    59  55  88 SE8       29.58F
ROCKWALL       MOCLDY    56  56 100 S6        29.57F FOG
6HR MIN TEMP:  56; 6HR MAX TEMP:  58;

TERRELL        MOCLDY    58  56  93 S5        29.59F
6HR MIN TEMP:  58; 6HR MAX TEMP:  61;

WAXAHACHIE     PTCLDY    55  55 100 CALM      29.61F FOG
6HR MIN TEMP:  53; 6HR MAX TEMP:  57; 6HR PCP:  0.01;

CLEBURNE       CLEAR     52  52 100 S7        29.61F
GRANBURY       CLEAR     53  51  92 SE5       29.60F
6HR MIN TEMP:  53; 6HR MAX TEMP:  57; 6HR PCP:  0.22;

$$

TXZ083>090-098>101-113>116-127>130-139>142-154-155-231300-
WESTERN NORTH TEXAS

CITY           SKY/WX    TMP DP  RH WIND       PRES   REMARKS
WICHITA FALLS  MOCLDY    50  49  96 S13       29.51F FOG
6HR MIN TEMP:  45; 6HR MAX TEMP:  51;

WF-KICKAPOO    PTCLDY    48  48 100 S6        29.53F
6HR MIN TEMP:  47; 6HR MAX TEMP:  51;

VERNON         MOCLDY    50  48  93 S7        29.49F
ABILENE        CLEAR     50  47  89 SW9       29.61R
6HR MIN TEMP:  50; 6HR MAX TEMP:  54;

ABILENE-DYESS  CLEAR     47  42  81 SW3       29.59S
6HR MIN TEMP:  47; 6HR MAX TEMP:  54;

BRECKENRIDGE   CLEAR     53  51  96 SW7       29.57S
6HR MIN TEMP:  51; 6HR MAX TEMP:  55;

GRAHAM         CLEAR     51  51  99 S3        29.55R
6HR MIN TEMP:  50; 6HR MAX TEMP:  53;

MINERAL WELLS  CLEAR    N/A N/A N/A SE9       29.57R
STEPHENVILLE   CLOUDY    50  48  93 S3        29.63R VSB 1/4
6HR MIN TEMP:  50; 6HR MAX TEMP:  55; 6HR PCP:  0.19;

COMANCHE       CLEAR     54  54 100 SW12G17   29.61R
6HR MIN TEMP:  53; 6HR MAX TEMP:  55;

BROWNWOOD      CLEAR     48  48 100 SE5       29.63S
COLEMAN        CLEAR     52  47  83 SW8       29.62S
6HR MIN TEMP:  50; 6HR MAX TEMP:  55; 6HR PCP:  0.01;

BRADY          CLEAR     48  48 100 S10G21    29.64S
$$

TXZ143>147-156>162-174-175-231300-
CENTRAL TEXAS

CITY           SKY/WX    TMP DP  RH WIND       PRES   REMARKS
WACO           PTCLDY    51  51 100 S6        29.62S FOG
6HR MIN TEMP:  50; 6HR MAX TEMP:  57;

WACO-MCGREGOR  CLEAR     54  48  82 S6        29.63F
6HR MIN TEMP:  54; 6HR MAX TEMP:  57;

HILLSBORO      FOG       52  51  93 SE5       29.61F VSB 1/2
6HR MIN TEMP:  52; 6HR MAX TEMP:  58;

CORSICANA      CLOUDY    58  56  93 S5        29.62F FOG
6HR MIN TEMP:  58; 6HR MAX TEMP:  60; 6HR PCP: TRACE;

MEXIA          CLOUDY    58  58  99 S5        29.61F FOG
HEARNE         CLOUDY    58  57  94 S6        29.65F
6HR MIN TEMP:  58; 6HR MAX TEMP:  59; 6HR PCP:  0.01;

CAMERON        CLOUDY    59  58  98 SW6       29.64F
6HR MIN TEMP:  58; 6HR MAX TEMP:  60; 6HR PCP:  0.01;

TEMPLE         MOCLDY    54  50  87 S6        29.62F
6HR MIN TEMP:  54; 6HR MAX TEMP:  57;

KILLEEN        CLEAR     52  52 100 SW7       29.64F FOG
KILLEEN-SKYLRK CLEAR     52  46  82 S5        29.62F
6HR MIN TEMP:  52; 6HR MAX TEMP:  57;

FORT HOOD      CLEAR     55  52  89 S3        29.63F
6HR MIN TEMP:  55; 6HR MAX TEMP:  58;

GATESVILLE     CLEAR     54  54 100 S5        29.65S
LAMPASAS       CLEAR     53  52  97 CALM      29.63S
6HR MIN TEMP:  53; 6HR MAX TEMP:  55;

$$

TXZ095>097-106>112-122>126-135>138-148>153-164>167-231300-
EAST TEXAS

CITY           SKY/WX    TMP DP  RH WIND       PRES   REMARKS
PARIS          CLOUDY    57  55  94 S3        29.61F VSB 1
6HR MIN TEMP:  57; 6HR MAX TEMP:  61;

SULPHUR SPRNGS CLOUDY    57  57 100 SE3       29.63S FOG
6HR MIN TEMP:  55; 6HR MAX TEMP:  60;

MOUNT PLEASANT CLOUDY    59  59  99 W5        29.64R
6HR MIN TEMP:  59; 6HR MAX TEMP:  61;

MINEOLA        DRIZZLE   61  61 100 CALM      29.62F
TYLER          LGT RAIN  60  58  92 W5        29.62S
6HR MIN TEMP:  60; 6HR MAX TEMP:  61; 6HR PCP:  0.06;

LONGVIEW       LGT RAIN  62  60  93 CALM      29.59R
6HR MIN TEMP:  60; 6HR MAX TEMP:  62; 6HR PCP:  0.37;

MARSHALL       CLOUDY    60  57  92 S5        29.61S
6HR MIN TEMP:  58; 6HR MAX TEMP:  61; 6HR PCP:  0.62;

ATHENS         DRIZZLE   57  57 100 CALM      29.60F
PALESTINE      CLOUDY    60  60 100 SW3       29.64S FOG
JACKSONVILLE   CLOUDY    63  62  96 SW5       29.64R
HENDERSON      RAIN      62  62 100 W8        29.63R
6HR MIN TEMP:  59; 6HR MAX TEMP:  62;

NACOGDOCHES    CLOUDY    61  59  94 SW7       29.61R
6HR MIN TEMP:  61; 6HR MAX TEMP:  64; 6HR PCP:  0.29;

LUFKIN         CLOUDY    65  61  87 SW8       29.63R
6HR MIN TEMP:  65; 6HR MAX TEMP:  68; 6HR PCP:  0.22;

$$

SUPPLEMENTAL OBSERVATIONS (CENTRAL)

CITY           SKY/WX    TMP DP  RH WIND       PRES   REMARKS
LAKE TEXOMA      N/A     57  54  88 S7          N/A
CADDO GRASSLND   N/A     57  54  88 S7          N/A
PAT MAYSE LAKE   N/A     59  57  94 SE6         N/A
GREENVILLE       N/A     57  55  94 SE7         N/A
PALESTINE        N/A     61  59  94 W1G12       N/A
LAKE LIMESTONE   N/A     59  55  88 SW6         N/A
MCGREGOR         N/A     54  52  94 SW3         N/A
TEMPLE           N/A     55  54  94 CALM        N/A
$$

SUPPLEMENTAL OBSERVATIONS (WEST)

CITY           SKY/WX    TMP DP  RH WIND       PRES   REMARKS
MILLERS CREEK    N/A     52  48  87 SW12        N/A
POSSUM KINGDOM   N/A     52  46  82 S5          N/A
GRANBURY         N/A     54  50  87 SE6         N/A
COMANCHE         N/A     54  52  94 SW14        N/A
HAMBY            N/A     48  43  81 S10         N/A
COLORADO BEND    N/A     54  50  87 SW7         N/A
$$

SUPPLEMENTAL OBSERVATIONS (EAST)

CITY           SKY/WX    TMP DP  RH WIND       PRES   REMARKS
TEXARKANA        N/A     61  59  94 CALM        N/A
CADDO LAKE       N/A    N/A N/A N/A SE5         N/A




U.S. Dept. of Commerce
NOAA National Weather Service
1325 East West Highway
Silver Spring, MD 20910
E-mail: w-nws.webmaster@noaa.gov
Page last modified: May 16, 2007
NATIONAL WEATHER SERVICE: for Safety, for Work, for Fun - FOR LIFE